Regional Weather Roundup
Issued by NWS Cleveland, OH

Home | Current Version | Previous Version | Graphics & Text | Print | Product List | Glossary On
Versions: 1 2 3 4 5 6 7 8 9 10 11 12 13 14 15 16 17 18 19 20 21 22 23 24 25 26 27 28 29 30 31 32 33 34 35 36 37 38 39 40 41 42 43 44 45 46 47 48 49 50
805
ASUS41 KCLE 241500
RWRCLE
OHIO REGIONAL WEATHER ROUNDUP
NATIONAL WEATHER SERVICE WILMINGTON, OH
1000 AM EST TUE JAN 24 2017

NOTE: "FAIR" INDICATES FEW OR NO CLOUDS BELOW 12,000 FEET WITH NO
SIGNIFICANT WEATHER AND/OR OBSTRUCTIONS TO VISIBILITY.

OHZ001>008-015>018-024>027-034-035-043-044-241600-
   NORTHWEST OHIO

CITY           SKY/WX    TMP DP  RH WIND       PRES   REMARKS
DEFIANCE       CLOUDY    39  37  92 W9        29.82R
FINDLAY        CLOUDY    41  38  89 NW12      29.78R
TOLEDO EXPRESS LGT RAIN  40  40 100 NW9       29.78R
TOLEDO EXEC    CLOUDY    40  39  97 NW8       29.78S
LIMA           CLOUDY    40  40 100 NW13      29.80R
$$

OHZ009>014-019>023-028>033-038-089-241600-
   NORTHEAST OHIO

CITY           SKY/WX    TMP DP  RH WIND       PRES   REMARKS
CLE-HOPKINS    CLOUDY    37  32  82 N8        29.78R
CLE-LAKEFRONT  CLOUDY    36  34  92 N5        29.75R
CUY CO. ARPT   CLOUDY    36  34  93 N9        29.74R FOG
LORAIN-ELYRIA  CLOUDY    35  31  85 W5        29.77R
ASHTABULA      CLOUDY    34  31  88 N7        29.72R WCI  28
AKRON-CANTON   LGT RAIN  38  34  85 NW9       29.71R FOG
WOOSTER        NOT AVBL
MANSFIELD      CLOUDY    35  35 100 W7        29.75R FOG     WCI  29
YOUNGSTOWN     CLOUDY    34  31  88 NW16      29.69R FOG     WCI  24
$$

OHZ042-051>053-060>062-070>072-077>081-241600-
  SOUTHWEST OHIO

CITY           SKY/WX    TMP DP  RH WIND       PRES   REMARKS
CINC-COVINGTON CLOUDY    41  39  93 W10       29.85R
CINC-LUNKEN    CLOUDY    43  40  89 NW8       29.87R
HAMILTON       CLOUDY    43  39  86 W8        29.86R
DAYTON         CLOUDY    40  38  93 NW15      29.82R
WRIGHT-PAT AFB CLOUDY    41  41 100 W9        29.81S
DAYTON GENERAL CLOUDY    40  39  97 NW9       29.82R
WILMINGTON     CLOUDY    40  39  97 W8        29.81S
$$

OHZ036-037-039>041-045>050-054>059-063>069-073>076-082>088-241600-
  CENTRAL AND SOUTHEAST OHIO

CITY           SKY/WX    TMP DP  RH WIND       PRES   REMARKS
COLUMBUS       CLOUDY    41  38  89 NW10      29.78R
OSU AIRPORT    CLOUDY    41  40  96 NW12      29.78R FOG
BOLTON FIELD   CLOUDY    41  39  93 NW10      29.79R FOG
RICKENBACK AFB NOT AVBL
NEWARK         CLOUDY    41  37  86 NW8G16    29.76S
MARION         FOG       38  37  97 NW6       29.78S VSB 1/4
LANCASTER      CLOUDY    43  39  86 NW8       29.79R
ZANESVILLE     CLOUDY    41  38  89 W7        29.75R
NEW PHILLY     CLOUDY    40  38  93 NW12      29.74R
$$




USA.gov is the U.S. government's official web portal to all federal, state and local government web resources and services.